Weather History for Middleton, WI

Change the Weather History Date:

Tuesday, December 10, 2013

  Actual Average (KMSN) Record (KMSN)
Temperature  
Mean Temperature 8 °F 24 °F  
Max Temperature 19 °F 32 °F 55 °F (1911)
Min Temperature -4 °F 18 °F -16 °F (1919)
Degree Days  
Heating Degree Days 58 40  
Month to date heating degree days 386  
Since 1 July heating degree days 1965  
Cooling Degree Days 0 0  
Month to date cooling degree days 0  
Year to date cooling degree days 568  
Moisture  
Dew Point 0 °F    
Average Humidity 64    
Maximum Humidity 76    
Minimum Humidity 51    
Precipitation  
Precipitation 0.00 in 0.07 in 1.34 in (1970)
Month to date precipitation 0.70  
Year to date precipitation 33.44  
Snow  
Snow 0.00 in 0.50 in 12.70 in (1970)
Month to date snowfall 4.2  
Since 1 July snowfall 8.3  
Snow Depth -    
Sea Level Pressure  
Sea Level Pressure 30.03 in    
Wind  
Wind Speed 10 mph (WSW)    
Max Wind Speed 23 mph    
Max Gust Speed 31 mph    
Visibility 8 miles    
Events      
T = Trace of Precipitation, MM = Missing Value Source: NWS Daily Summary

Daily Weather History Graph

Daily Weather History Graph

Search for Another Location

Airport:

Trip Planner

Search our weather history database for the weather conditions in past years. The results will help you decide how hot, cold, wet, or windy it might be!

Date:

Astronomy

Dec. 10, 2013 Rise Set
Actual Time 7:19 AM CST 4:23 PM CST
Civil Twilight 6:46 AM CST 4:55 PM CST
Nautical Twilight 6:11 AM CST 5:31 PM CST
Astronomical Twilight 5:36 AM CST 6:05 PM CST
Moon 12:32 PM CST (12/10) 12:28 AM CST (12/10)
Length of Visible Light 10h 08m
Length of Day
9h 03m
Waxing Gibbous, 62% of the Moon is Illuminated
Dec 10
Waxing Gibbous
Dec 17
Full
Dec 25
Last Quarter
Jan 1
New
Jan 7
First Quarter

Hourly Weather History & Observations

Time (CST) Temp. Windchill Dew Point Humidity Pressure Visibility Wind Dir Wind Speed Gust Speed Precip Events Conditions
12:15 AM -3.6 °F -12.0 °F -10.1 °F 74% 30.10 in 10.0 mi WSW 3.5 mph - N/A   Clear
12:35 AM -4.0 °F - -10.5 °F 74% 30.10 in 10.0 mi Calm Calm - N/A   Clear
12:55 AM -3.8 °F - -9.9 °F 75% 30.09 in 10.0 mi Calm Calm - N/A   Clear
1:15 AM -3.6 °F -17.3 °F -9.6 °F 76% 30.08 in 10.0 mi SSW 6.9 mph - N/A   Clear
1:35 AM -3.3 °F -16.9 °F -9.6 °F 74% 30.07 in 10.0 mi SSW 6.9 mph - N/A   Clear
1:55 AM -4.0 °F -14.6 °F -9.9 °F 76% 30.05 in 10.0 mi South 4.6 mph - N/A   Clear
2:15 AM -2.9 °F -13.3 °F -9.2 °F 74% 30.04 in 10.0 mi South 4.6 mph - N/A   Clear
2:35 AM -2.0 °F -18.7 °F -8.5 °F 74% 30.03 in 10.0 mi SSW 10.4 mph - N/A   Mostly Cloudy
2:55 AM -1.8 °F -18.5 °F -8.5 °F 73% 30.01 in 10.0 mi South 10.4 mph - N/A   Overcast
3:15 AM -1.3 °F -16.8 °F -8.1 °F 73% 30.00 in 10.0 mi SSW 9.2 mph - N/A   Mostly Cloudy
3:35 AM 0.1 °F -14.0 °F -7.4 °F 70% 29.98 in 10.0 mi SSW 8.1 mph - N/A   Mostly Cloudy
3:55 AM 1.2 °F -11.5 °F -6.7 °F 69% 29.97 in 10.0 mi South 6.9 mph - N/A   Overcast
4:15 AM 1.4 °F -16.1 °F -6.7 °F 69% 29.95 in 10.0 mi South 12.7 mph - N/A   Overcast
4:35 AM 1.4 °F -15.3 °F -6.7 °F 69% 29.93 in 10.0 mi South 11.5 mph - N/A   Overcast
4:55 AM 1.8 °F -14.0 °F -6.0 °F 70% 29.91 in 10.0 mi SSW 10.4 mph - N/A   Overcast
5:15 AM 2.7 °F -12.9 °F -5.8 °F 68% 29.90 in 10.0 mi SSW 10.4 mph - N/A   Overcast
5:35 AM 3.7 °F -11.6 °F -5.1 °F 67% 29.90 in 10.0 mi SSW 10.4 mph - N/A   Overcast
5:55 AM 5.5 °F -10.9 °F -2.6 °F 69% 29.89 in 2.5 mi SW 12.7 mph 21.9 mph N/A   Overcast
6:15 AM 5.9 °F -11.8 °F -1.1 °F 73% 29.88 in 3.0 mi SW 15.0 mph 18.4 mph N/A   Overcast
6:35 AM 5.9 °F -9.7 °F -1.1 °F 73% 29.89 in 5.0 mi SW 11.5 mph 19.6 mph N/A   Overcast
6:55 AM 6.6 °F -9.5 °F -0.4 °F 73% 29.88 in 4.0 mi SW 12.7 mph 19.6 mph N/A   Overcast
7:15 AM 7.7 °F -8.9 °F 1.0 °F 74% 29.87 in 2.0 mi SW 13.8 mph 19.6 mph N/A   Overcast
7:35 AM 8.6 °F -7.7 °F 2.1 °F 75% 29.87 in 3.0 mi WSW 13.8 mph 18.4 mph N/A   Overcast
7:55 AM 9.3 °F -5.4 °F 3.0 °F 76% 29.88 in 2.5 mi WSW 11.5 mph - N/A   Overcast
8:15 AM 10.0 °F -4.5 °F 3.4 °F 74% 29.88 in 5.0 mi WSW 11.5 mph 18.4 mph N/A   Overcast
8:34 AM 10.4 °F -4.8 °F 3.2 °F 73% 29.89 in 5.0 mi WSW 12.7 mph 19.6 mph N/A   Mostly Cloudy
8:35 AM 10.4 °F -4.8 °F 3.7 °F 74% 29.89 in 5.0 mi WSW 12.7 mph 19.6 mph N/A   Mostly Cloudy
8:55 AM 12.0 °F -1.3 °F 4.5 °F 72% 29.89 in 4.0 mi WSW 10.4 mph 18.4 mph N/A   Mostly Cloudy
9:15 AM 13.8 °F -1.1 °F 6.1 °F 71% 29.90 in 4.0 mi West 13.8 mph 20.7 mph N/A   Overcast
9:35 AM 14.9 °F 1.6 °F 7.0 °F 71% 29.90 in 7.0 mi WSW 11.5 mph 19.6 mph N/A   Scattered Clouds
9:55 AM 16.5 °F 1.3 °F 7.9 °F 69% 29.91 in 10.0 mi West 16.1 mph 20.7 mph N/A   Scattered Clouds
10:15 AM 18.3 °F 1.4 °F 9.1 °F 67% 29.92 in 4.0 mi West 21.9 mph - N/A   Overcast
10:35 AM 18.7 °F 2.3 °F 8.2 °F 64% 29.93 in 4.0 mi West 20.7 mph 29.9 mph N/A   Overcast
10:55 AM 18.7 °F 1.9 °F 7.7 °F 62% 29.94 in 5.0 mi West 21.9 mph 26.5 mph N/A   Scattered Clouds
11:15 AM 19.4 °F 2.5 °F 7.5 °F 60% 29.95 in 5.0 mi West 23.0 mph 28.8 mph N/A   Mostly Cloudy
11:35 AM 19.0 °F 3.2 °F 7.2 °F 60% 29.94 in 5.0 mi West 19.6 mph 27.6 mph N/A   Scattered Clouds
11:55 AM 18.3 °F 1.4 °F 5.0 °F 56% 29.94 in 7.0 mi West 21.9 mph 28.8 mph N/A   Scattered Clouds
12:15 PM 18.5 °F 2.4 °F 4.8 °F 55% 29.97 in 7.0 mi West 19.6 mph 27.6 mph N/A   Scattered Clouds
12:35 PM 18.3 °F 2.6 °F 5.2 °F 57% 29.98 in 10.0 mi West 18.4 mph 24.2 mph N/A   Scattered Clouds
12:55 PM 18.0 °F 2.2 °F 4.5 °F 56% 29.98 in 4.0 mi West 18.4 mph 31.1 mph N/A   Clear
1:15 PM 18.0 °F 2.2 °F 3.2 °F 53% 29.97 in 7.0 mi West 18.4 mph 24.2 mph N/A   Clear
1:35 PM 17.6 °F 0.9 °F 3.2 °F 53% 30.00 in 10.0 mi WNW 20.7 mph 27.6 mph N/A   Clear
1:55 PM 17.2 °F -0.4 °F 2.7 °F 53% 30.02 in 5.0 mi West 23.0 mph 28.8 mph N/A   Clear
2:15 PM 17.6 °F 0.9 °F 2.7 °F 52% 30.03 in 10.0 mi West 20.7 mph 25.3 mph N/A   Clear
2:35 PM 17.2 °F 1.7 °F 1.8 °F 51% 30.04 in 10.0 mi West 17.3 mph 26.5 mph N/A   Clear
2:55 PM 17.2 °F 2.2 °F 1.9 °F 51% 30.04 in 10.0 mi West 16.1 mph - N/A   Clear
3:15 PM 16.5 °F 0.8 °F 1.0 °F 51% 30.05 in 10.0 mi West 17.3 mph 23.0 mph N/A   Clear
3:35 PM 16.0 °F 1.7 °F 0.5 °F 51% 30.07 in 10.0 mi West 13.8 mph 18.4 mph N/A   Clear
3:55 PM 15.1 °F 1.1 °F -0.0 °F 51% 30.08 in 10.0 mi West 12.7 mph 20.7 mph N/A   Clear
4:15 PM 14.4 °F -2.0 °F -0.4 °F 52% 30.10 in 10.0 mi West 17.3 mph 23.0 mph N/A   Clear
4:35 PM 13.1 °F 1.8 °F -0.6 °F 54% 30.09 in 10.0 mi West 8.1 mph - N/A   Clear
4:55 PM 11.1 °F 0.4 °F -1.3 °F 57% 30.10 in 10.0 mi West 6.9 mph - N/A   Clear
5:15 PM 10.4 °F - -0.8 °F 61% 30.10 in 10.0 mi Calm Calm - N/A   Clear
5:35 PM 11.5 °F 0.9 °F -1.3 °F 57% 30.10 in 10.0 mi West 6.9 mph - N/A   Clear
5:55 PM 12.0 °F 1.5 °F -0.8 °F 57% 30.13 in 10.0 mi WSW 6.9 mph - N/A   Clear
6:15 PM 11.8 °F -1.5 °F -0.6 °F 58% 30.15 in 10.0 mi West 10.4 mph - N/A   Clear
6:35 PM 12.0 °F -0.4 °F -0.4 °F 58% 30.15 in 10.0 mi West 9.2 mph - N/A   Mostly Cloudy
6:55 PM 12.0 °F -1.3 °F 0.3 °F 59% 30.15 in 10.0 mi West 10.4 mph - N/A   Overcast
7:15 PM 12.0 °F -1.3 °F 0.5 °F 60% 30.15 in 10.0 mi West 10.4 mph - N/A   Overcast
7:35 PM 12.0 °F 1.5 °F 0.9 °F 61% 30.16 in 10.0 mi West 6.9 mph - N/A   Overcast
7:55 PM 11.8 °F -0.7 °F 0.5 °F 60% 30.17 in 10.0 mi West 9.2 mph - N/A   Mostly Cloudy
7:56 PM 12.2 °F 0.7 °F -0.4 °F 57% 30.17 in 10.0 mi West 8.1 mph - N/A   Mostly Cloudy
8:15 PM 11.8 °F 1.3 °F 0.5 °F 60% 30.18 in 10.0 mi WSW 6.9 mph - N/A   Mostly Cloudy
8:35 PM 12.0 °F 1.5 °F 0.5 °F 60% 30.18 in 10.0 mi WSW 6.9 mph - N/A   Mostly Cloudy
8:55 PM 12.2 °F -0.2 °F 1.2 °F 61% 30.18 in 10.0 mi West 9.2 mph - N/A   Overcast
9:15 PM 12.7 °F 1.4 °F 1.6 °F 61% 30.19 in 10.0 mi West 8.1 mph - N/A   Overcast
9:35 PM 12.7 °F 0.4 °F 2.1 °F 63% 30.19 in 10.0 mi WSW 9.2 mph - N/A   Overcast
9:55 PM 12.9 °F 1.6 °F 2.3 °F 63% 30.20 in 10.0 mi WSW 8.1 mph - N/A   Overcast
10:15 PM 12.6 °F 3.4 °F 2.1 °F 63% 30.20 in 10.0 mi WSW 5.8 mph - N/A   Mostly Cloudy
10:35 PM 12.2 °F 2.9 °F 2.3 °F 65% 30.21 in 10.0 mi West 5.8 mph - N/A   Mostly Cloudy
10:55 PM 12.9 °F 3.8 °F 3.0 °F 65% 30.21 in 10.0 mi WSW 5.8 mph - N/A   Overcast
11:15 PM 12.9 °F 5.2 °F 3.4 °F 66% 30.22 in 10.0 mi SW 4.6 mph - N/A   Overcast
11:35 PM 13.1 °F 4.0 °F 5.4 °F 71% 30.22 in 5.0 mi SW 5.8 mph - N/A   Overcast
11:55 PM 13.3 °F 5.6 °F 7.0 °F 76% 30.22 in 4.0 mi SW 4.6 mph - N/A   Overcast